BREEZE-M DEB (TANK), 40884

Orbit data source: Space-Track

BREEZE-M DEB (TANK), 40884 is space debris in HEO originally from a launch on Fri, 28 Aug 2015 UTC launched from the Tyuratam Missile And Space Complex (TTMTR). Debris objects in space refer to the collection of defunct objects orbiting the Earth. Examples of debris include non-operational satellites, rocket bodies, and fragments generated from explosions, collisions, or faulty payload assembly.

Loading next visibility...
Identifier
40884, 2015-042C
Orbit
HEO
Country
Flag of CISCIS
Related business
Manufacturer
Khrunichev
Mission
Spacecraft
Bus & Motor
BRIZ TANK, Unknown motor
Mass
~1,000 kg wet, 1,000 kg dry
Launch date (UTC)
2015-08-28 (11 years ago)
Launch vehicle
Unknown
Launch site
Tyuratam Missile And Space Complex (TTMTR)
Object type
Payload
Rocket body
Debris
Shape & HBR
Torus, 2.0 m
Radar Cross Section
8.218 m², Large (>1 m²)

Expand to show TLE details & history
Last TLE update: 11 hours ago

TLE from 11 hours ago
0 BREEZE-M DEB (TANK)
1 40884U 15042C   26062.03424201  .00002910  00000-0  86140-3 0  9992
2 40884  50.7378 101.8313 5130451 334.3525   7.2936  5.35719915203048
Epoch: 2026-03-03T00:49Z
TLE epoch observation values (Epoch: 2026-03-03T00:49:18.509Z)
Latitude
-0.00003°
Longitude
-71.30567°
Altitude
579.637 km
Speed
9.258 km/s
True Right ascension
06h 47m 21s
True Declination
0° 00' 00"
Sunlit
Object was in full shadow at epoch
Visualization orbit readout
Latitude
Unknown
Longitude
Unknown
Altitude
Unknown
Speed
Unknown
Apparent Right ascension
Unknown
Apparent Declination
Unknown
Sunlit
N/A
Visualization observer readout
Local Sidereal Time
15:40:26
Azimuth
Unknown
Elevation
Unknown
Doppler factor
Unknown
Orbital elements
Apogee altitude
14,497.743 km
Perigee altitude
340.508 km
Semi-major axis
13,797.263 km
Eccentricity
0.51305
Inclination
50.7378°
RAAN
101.8313°
Arg. of periapsis
334.3525°
True anomaly
25.79823°
Mean anomaly
7.2936°
Eccentric anomaly
14.80498°
Mean motion
1.33923 °/min
Orbital period
268.81 mins
BSTAR
0.0008614
Loading maneuver chart data...
Computing Atmospheric mass density...
Loading historical data...
Loading historical data...
Loading historical data...
Loading historical data...
Loading historical data...
Loading historical data...
Loading historical data...
Other satellites on launch #42 in the year 2015 (2015-08-28 UTC)

Documentation

Showing up to 5 results
|